This is the latest recevied weather packets stored in our database for station/object EA5GK-10. If no packets are shown the sender has not sent any weather packets the latest 10 day(s).
| Time | Temp. | Humidity | Pressure | Rain* | Wind** | Luminosity | Snow |
|---|---|---|---|---|---|---|---|
| 1788011694 | 32.22° C | 24% | 1018.6 hPa | - | - | - | - |
| 1788010794 | 32.22° C | 24% | 1018.7 hPa | - | - | - | - |
| 1788009893 | 32.22° C | 23% | 1018.9 hPa | - | - | - | - |
| 1788008993 | 31.67° C | 25% | 1019.1 hPa | - | - | - | - |
| 1788008093 | 31.11° C | 25% | 1019.2 hPa | - | - | - | - |
| 1788007193 | 31.67° C | 24% | 1019.4 hPa | - | - | - | - |
| 1788006293 | 31.11° C | 24% | 1019.4 hPa | - | - | - | - |
| 1788005393 | 30.56° C | 26% | 1019.5 hPa | - | - | - | - |
| 1788004493 | 30.56° C | 27% | 1019.6 hPa | - | - | - | - |
| 1788003592 | 30° C | 26% | 1019.8 hPa | - | - | - | - |
| 1788002692 | 29.44° C | 27% | 1019.9 hPa | - | - | - | - |
| 1788001792 | 29.44° C | 27% | 1020.1 hPa | - | - | - | - |
| 1788000892 | 28.89° C | 28% | 1020.2 hPa | - | - | - | - |
| 1787999992 | 28.33° C | 28% | 1020.3 hPa | - | - | - | - |
| 1787999092 | 28.33° C | 29% | 1020.5 hPa | - | - | - | - |
| 1787998192 | 27.78° C | 30% | 1020.5 hPa | - | - | - | - |
| 1787997292 | 27.78° C | 31% | 1020.6 hPa | - | - | - | - |
| 1787996391 | 27.22° C | 33% | 1020.6 hPa | - | - | - | - |
| 1787995491 | 27.22° C | 34% | 1020.6 hPa | - | - | - | - |
| 1787994591 | 26.67° C | 37% | 1020.6 hPa | - | - | - | - |
| 1787993691 | 26.11° C | 39% | 1020.6 hPa | - | - | - | - |
| 1787992791 | 25.56° C | 40% | 1020.6 hPa | - | - | - | - |
| 1787991891 | 25.56° C | 42% | 1020.4 hPa | - | - | - | - |
| 1787990095 | 24.44° C | 44% | 1020.1 hPa | - | - | - | - |
| 1787989195 | 23.89° C | 44% | 1020.1 hPa | - | - | - | - |
* Rain since midnight (hover to see other rain measurements)
** Current wind speed in m/s (hover to see current wind gust speed)